Location: Unspecified
(52.4292°N, 19.3359°E)
Time: 00:53:28
(UTC+02:00)

Altair - Pass Details

Date: 22 May 2024
Orbit: 1502 x 1682 km, 47.2° (Epoch: 20 June)

Event Time Altitude Azimuth Distance (km) Brightness Sun altitude
Rises 14:18:22 0° 269° (W) 4,891 10.5 52.8°
Reaches altitude 10° 14:21:31 10° 266° (W) 3,919 10.2 52.5°
Maximum altitude 14:31:27 65° 188° (S) 1,821 9.5 51.5°
Drops below altitude 10° 14:41:25 10° 110° (ESE) 3,931 9.6 50.4°
Sets 14:44:35 0° 108° (ESE) 4,907 9.9 50.0°
